Showing default

ALOS-4, 60182

Orbit data source: Space-Track

ALOS-4, 60182 is a payload satellite owned by JAXA (JP) in SSO that was launched on Mon, 01 Jul 2024 UTC via a H3-22S launch vehicle from the Tanegashima Space Center (TNSTA). Payload-class satellites include a variety of spacecraft equipped with specific instruments for various scientific and technological missions. These include communications satellites like Starlink; space stations such as the ISS; scientific satellites like the Hubble; Earth observation satellites from companies like Planet Labs, Umbra, and HawkEye 360; GPS; miniature CubeSats for education and research; and military/defense satellites.

Loading next visibility...
Identifier
60182, 2024-123A
Orbit
SSO
Last TLE update
6 hours ago
Origin
Manufacturer
MELCO
Mission
Operational Civil Imaging
Bus & Motor
ALOS, AOCS
Mass
2,900 kg wet, ~2,500 kg dry
Launch date (UTC)
Icon of a cake. It is the launch day of the satellite!2024-07-01 (1 year ago)
Launch vehicle
H3-22S
Launch site
Tanegashima Space Center (TNSTA)
Object type
Payload
Rocket body
Debris
Shape & HBR
Box + 2 Pan, 16.5 m
Radar Cross Section
36.926 m², Large (>1 m²)

Expand to show TLE details & history

TLE from 6 hours ago
0 ALOS-4
1 60182U 24123A   25181.87347632  .00001118  00000-0  15650-3 0  9997
2 60182  97.9221 279.0831 0001586  98.2673 261.8719 14.79472546 53937
Epoch: 2025-06-30T20:57Z
TLE epoch observation values (Epoch: 2025-06-30T20:57:48.354Z)
Latitude
0.00006°
Longitude
45.45458°
Altitude
634.167 km
Speed
7.541 km/s
True Right ascension
18h 36m 19s
True Declination
0° 00' 00"
Sunlit
Object was in full shadow at epoch
Visualization orbit readout
Latitude
-1.77368°
Longitude
45.96643°
Altitude
634.43 km
Speed
7.541 km/s
Apparent Right ascension
21h 33m 51s
Apparent Declination
-37° 00' 53"
Sunlit
Object is in full shadow
Visualization observer readout
Local Sidereal Time
15:04:11
Azimuth
116.547° SE
Elevation
-27.734°
Doppler factor
1
Orbital elements
Apogee altitude
629.143 km
Perigee altitude
626.921 km
Semi-major axis
7,006.169 km
Eccentricity
0.00016
Inclination
97.9221°
RAAN
279.0831°
Arg. of periapsis
98.2673°
True anomaly
Unknown
Mean anomaly
261.8719°
Eccentric anomaly
Unknown
Mean motion
3.70103 °/min
Orbital period
97.27 mins
BSTAR
0.0001565
Loading maneuver chart data...
Loading SW <> Apogee altitude chart data...
Loading historical data...
Loading historical data...
Loading historical data...
Loading historical data...
Loading historical data...
Loading historical data...
Loading historical data...
Other satellites on launch #123 in the year 2024 (2024-07-01 UTC)

ALOS-4 Visibility forecast

Observer location: undefined°, undefined°

Span
Click to sort rows by Start time (UTC) header in descending order
Start Az.
Max El. time (UTC)
Max El. Az.
Max El.
End time (UTC)
End Az.
4 mins2025-07-01 05:14:53.357Z93.475° ESE2025-07-01 05:16:53.357Z65.445° ENE13.553°2025-07-01 05:18:53.357Z36.817° NE
7 mins2025-07-01 06:49:53.357Z187.691° SSW2025-07-01 06:52:53.357Z262.784° W38.911°2025-07-01 06:56:53.357Z337.122° NNW
5 mins2025-07-01 18:39:53.357Z52.783° ENE2025-07-01 18:41:53.357Z93.022° ESE25.144°2025-07-01 18:44:53.357Z148.449° SSE
5 mins2025-07-01 20:15:53.357Z334.081° NNW2025-07-01 20:17:53.357Z298.912° NW22.467°2025-07-01 20:20:53.357Z245.117° WSW
|